Regional Weather Roundup
Issued by NWS Cleveland, OH

Home | Current Version | Previous Version | Text Only | Print | Product List | Glossary Off
Versions: 1 2 3 4 5 6 7 8 9 10 11 12 13 14 15 16 17 18 19 20 21 22 23 24 25 26 27 28 29 30 31 32 33 34 35 36 37 38 39 40 41 42 43 44 45 46 47 48 49 50

537
ASUS41 KCLE 170512
RWRCLE
OHIO REGIONAL WEATHER ROUNDUP
NATIONAL WEATHER SERVICE WILMINGTON, OH
1200 AM EST TUE JAN 17 2017

NOTE: "FAIR" INDICATES FEW OR NO CLOUDS BELOW 12,000 FEET WITH NO
SIGNIFICANT WEATHER AND/OR OBSTRUCTIONS TO VISIBILITY.

OHZ001>008-015>018-024>027-034-035-043-044-170600-
   NORTHWEST OHIO

CITY           SKY/WX    TMP DP  RH WIND       PRES   REMARKS
DEFIANCE       LGT RAIN  38  35  89 E7        30.02F FOG
FINDLAY        CLOUDY    43  40  89 SE12      30.03F FOG
TOLEDO EXPRESS LGT RAIN  34  34 100 E6        30.05F FOG     WCI  29
TOLEDO EXEC    CLOUDY    35  35 100 E5        30.07F FOG
LIMA           CLOUDY    46  46 100 SE12      30.02F FOG
$$

OHZ009>014-019>023-028>033-038-089-170600-
   NORTHEAST OHIO

CITY           SKY/WX    TMP DP  RH WIND       PRES   REMARKS
CLE-HOPKINS    LGT RAIN  41  36  82 S7        30.13F
CLE-LAKEFRONT  LGT RAIN  36  33  89 CALM      30.10F FOG
CUY CO. ARPT   NOT AVBL
LORAIN-ELYRIA  CLOUDY    38  34  85 S7        30.08F FOG
ASHTABULA      CLOUDY    37  30  75 SE7       30.14F
AKRON-CANTON   LGT RAIN  40  35  83 SE8       30.12F
WOOSTER        LGT RAIN  37  35  92 SE6       30.10F FOG
MANSFIELD      CLOUDY    42  41  96 S9        30.07F FOG
YOUNGSTOWN     CLOUDY    38  34  85 SE8       30.13F
$$

OHZ042-051>053-060>062-070>072-077>081-170600-
  SOUTHWEST OHIO

CITY           SKY/WX    TMP DP  RH WIND       PRES   REMARKS
CINC-COVINGTON LGT RAIN  54  53  97 S9        30.03F
CINC-LUNKEN    RAIN      47  47 100 CALM      30.05F FOG
HAMILTON       RAIN      52  52 100 E3        30.05S FOG
DAYTON         LGT RAIN  48  48 100 SE10      30.03F VSB 1
WRIGHT-PAT AFB LGT RAIN  49  49 100 CALM      30.03F
DAYTON GENERAL LGT RAIN  52  50  93 SE9       30.03F
WILMINGTON     CLOUDY    49  48  97 SE7       30.04F FOG
$$

OHZ036-037-039>041-045>050-054>059-063>069-073>076-082>088-170600-
  CENTRAL AND SOUTHEAST OHIO

CITY           SKY/WX    TMP DP  RH WIND       PRES   REMARKS
COLUMBUS       LGT RAIN  47  47 100 SE5       30.08F
OSU AIRPORT    CLOUDY    45  45 100 E7        30.05F FOG
BOLTON FIELD   CLOUDY    45  45 100 SE5       30.07F
RICKENBACK AFB DRIZZLE   44  44 100 E6        30.07F
NEWARK         LGT RAIN  41  39  93 CALM      30.09F FOG
MARION         CLOUDY    44  42  93 S10       30.07F FOG
LANCASTER      CLOUDY    48  46  93 S3        30.09F
ZANESVILLE     CLOUDY    42  40  92 SE3       30.10F FOG
NEW PHILLY     CLOUDY    40  37  89 SE7       30.12F
$$




USA.gov is the U.S. government's official web portal to all federal, state and local government web resources and services.